H1 CPF 2 NER 2025 5 17 9 137 01 glonass135 H2 1600801 9135 41330 2025 5 17 0 0 0 2025 5 20 23 45 0 900 1 1 0 0 0 1 H9 10 0 60812 0.00000 0 1468337.759 -25392513.751 -1617502.962 10 0 60812 900.00000 0 1293372.509 -24993848.049 -4816678.241 10 0 60812 1800.00000 0 1177375.277 -24196168.713 -7922042.643 10 0 60812 2700.00000 0 1173024.320 -23022864.049 -10873132.836 10 0 60812 3600.00000 0 1327420.395 -21509610.432 -13612514.836 10 0 60812 4500.00000 0 1679851.117 -19702940.466 -16086909.065 10 0 60812 5400.00000 0 2259892.540 -17658373.079 -18248230.797 10 0 60812 6300.00000 0 3085929.131 -15438184.936 -20054525.390 10 0 60812 7200.00000 0 4164155.165 -13108917.557 -21470780.164 10 0 60812 8100.00000 0 5488099.929 -10738725.173 -22469597.609 10 0 60812 9000.00000 0 7038696.792 -8394674.518 -23031717.660 10 0 60812 9900.00000 0 8784893.170 -6140109.249 -23146379.867 10 0 60812 10800.00000 0 10684775.704 -4032188.308 -22811519.593 10 0 60812 11700.00000 0 12687163.515 -2119699.772 -22033795.492 10 0 60812 12600.00000 0 14733602.913 -441239.761 -20828448.746 10 0 60812 13500.00000 0 16760680.452 976169.537 -19218997.561 10 0 60812 14400.00000 0 18702558.097 2117967.223 -17236773.410 10 0 60812 15300.00000 0 20493625.204 2982411.528 -14920308.328 10 0 60812 16200.00000 0 22071157.224 3580395.331 -12314585.232 10 0 60812 17100.00000 0 23377870.907 3934729.021 -9470165.691 10 0 60812 18000.00000 0 24364269.986 4078922.424 -6442211.845 10 0 60812 18900.00000 0 24990684.074 4055518.257 -3289421.092 10 0 60812 19800.00000 0 25228916.183 3914048.134 -72893.807 10 0 60812 20700.00000 0 25063430.438 3708697.725 3145044.370 10 0 60812 21600.00000 0 24492030.649 3495779.728 6302043.266 10 0 60812 22500.00000 0 23526001.403 3331121.230 9336929.170 10 0 60812 23400.00000 0 22189705.625 3267475.546 12190883.224 10 0 60812 24300.00000 0 20519655.031 3352067.585 14808574.918 10 0 60812 25200.00000 0 18563091.620 3624376.221 17139229.247 10 0 60812 26100.00000 0 16376138.582 4114247.330 19137607.329 10 0 60812 27000.00000 0 14021596.755 4840417.456 20764881.970 10 0 60812 27900.00000 0 11566477.300 5809511.112 21989391.587 10 0 60812 28800.00000 0 9079372.280 7015555.094 22787258.059 10 0 60812 29700.00000 0 6627771.486 8440031.851 23142856.565 10 0 60812 30600.00000 0 4275436.193 10052471.597 23049128.034 10 0 60812 31500.00000 0 2079938.392 11811560.398 22507727.605 10 0 60812 32400.00000 0 90467.358 13666719.943 21529005.436 10 0 60812 33300.00000 0 -1654005.422 15560094.763 20131819.184 10 0 60812 34200.00000 0 -3126126.551 17428865.307 18343180.639 10 0 60812 35100.00000 0 -4311067.809 19207791.146 16197742.170 10 0 60812 36000.00000 0 -5206902.074 20831878.392 13737131.834 10 0 60812 36900.00000 0 -5824432.315 22239059.468 11009149.180 10 0 60812 37800.00000 0 -6186481.088 23372772.329 8066836.845 10 0 60812 38700.00000 0 -6326670.870 24184329.857 4967445.800 10 0 60812 39600.00000 0 -6287747.387 24634978.609 1771314.705 10 0 60812 40500.00000 0 -6119517.859 24697559.004 -1459314.093 10 0 60812 41400.00000 0 -5876492.684 24357695.836 -4661517.856 10 0 60812 42300.00000 0 -5615331.975 23614467.981 -7772930.858 10 0 60812 43200.00000 0 -5392206.810 22480528.462 -10732970.442 10 0 60812 44100.00000 0 -5260188.622 20981669.580 -13484026.549 10 0 60812 45000.00000 0 -5266778.831 19155851.567 -15972590.410 10 0 60812 45900.00000 0 -5451684.558 17051736.040 -18150299.659 10 0 60812 46800.00000 0 -5844935.409 14726786.504 -19974879.182 10 0 60812 47700.00000 0 -6465421.473 12245016.241 -21410959.401 10 0 60812 48600.00000 0 -7319914.436 9674478.470 -22430756.556 10 0 60812 49500.00000 0 -8402613.045 7084604.017 -23014602.557 10 0 60812 50400.00000 0 -9695231.764 4543497.638 -23151315.104 10 0 60812 51300.00000 0 -11167628.651 2115305.249 -22838402.018 10 0 60812 52200.00000 0 -12778945.769 -142239.202 -22082096.940 10 0 60812 53100.00000 0 -14479214.168 -2179986.386 -20897226.684 10 0 60812 54000.00000 0 -16211356.178 -3959175.091 -19306913.649 10 0 60812 54900.00000 0 -17913501.374 -5452793.447 -17342119.604 10 0 60812 55800.00000 0 -19521519.621 -6646443.285 -15041040.035 10 0 60812 56700.00000 0 -20971665.725 -7538673.768 -12448360.884 10 0 60812 57600.00000 0 -22203225.623 -8140772.432 -9614391.997 10 0 60812 58500.00000 0 -23161054.010 -8476024.263 -6594093.834 10 0 60812 59400.00000 0 -23797897.777 -8578471.427 -3446016.013 10 0 60812 60300.00000 0 -24076408.541 -8491226.970 -231167.825 10 0 60812 61200.00000 0 -23970760.363 -8264414.206 2988157.738 10 0 60812 62100.00000 0 -23467805.123 -7952819.024 6149584.111 10 0 60812 63000.00000 0 -22567717.163 -7613354.205 9191852.643 10 0 60812 63900.00000 0 -21284099.916 -7302442.564 12056002.600 10 0 60812 64800.00000 0 -19643549.552 -7073429.098 14686507.310 10 0 60812 65700.00000 0 -17684693.038 -6974131.023 17032345.021 10 0 60812 66600.00000 0 -15456739.769 -7044628.896 19047984.148 10 0 60812 67500.00000 0 -13017605.954 -7315391.989 20694264.356 10 0 60812 68400.00000 0 -10431688.559 -7805817.268 21939156.774 10 0 60812 69300.00000 0 -7767380.127 -8523244.218 22758388.821 10 0 60812 70200.00000 0 -5094426.489 -9462488.112 23135921.571 10 0 60812 71100.00000 0 -2481236.031 -10605912.817 23064270.153 10 0 60812 72000.00000 0 7748.660 -11924041.858 22544660.447 10 0 60812 72900.00000 0 2314508.221 -13376683.966 21587018.244 10 0 60812 73800.00000 0 4389631.333 -14914527.787 20209790.049 10 0 60812 74700.00000 0 6194136.168 -16481140.447 18439597.835 10 0 60812 75600.00000 0 7700852.604 -18015287.446 16310733.225 10 0 60812 76500.00000 0 8895307.441 -19453477.284 13864499.814 10 0 60812 77400.00000 0 9776075.552 -20732624.172 11148415.498 10 0 60812 78300.00000 0 10354582.314 -21792716.609 8215289.746 10 0 60812 79200.00000 0 10654365.961 -22579378.750 5122193.562 10 0 60812 80100.00000 0 10709831.488 -23046215.540 1929342.499 10 0 60812 81000.00000 0 10564549.594 -23156841.441 -1301084.880 10 0 60812 81900.00000 0 10269173.761 -22886505.795 -4506169.036 10 0 60812 82800.00000 0 9879065.050 -22223244.994 -7623486.866 10 0 60812 83700.00000 0 9451726.766 -21168511.888 -10592339.012 10 0 60812 84600.00000 0 9044159.314 -19737255.208 -13354941.855 10 0 60812 85500.00000 0 8710248.758 -17957445.394 -15857559.797 10 0 60813 0.00000 0 8498300.964 -15869067.059 -18051554.840 10 0 60813 900.00000 0 8448826.491 -13522619.542 -19894333.744 10 0 60813 1800.00000 0 8592670.693 -10977191.796 -21350171.489 10 0 60813 2700.00000 0 8949567.745 -8298188.944 -22390899.405 10 0 60813 3600.00000 0 9527179.726 -5554808.566 -22996442.346 10 0 60813 4500.00000 0 10320660.672 -2817371.039 -23155196.733 10 0 60813 5400.00000 0 11312763.391 -154615.030 -22864243.035 10 0 60813 6300.00000 0 12474483.948 2368929.999 -22129389.681 10 0 60813 7200.00000 0 13766216.244 4695386.069 -20965048.563 10 0 60813 8100.00000 0 15139367.865 6775683.689 -19393945.365 10 0 60813 9000.00000 0 16538369.295 8571345.700 -17446670.899 10 0 60813 9900.00000 0 17902992.272 10055825.655 -15161082.492 10 0 60813 10800.00000 0 19170880.368 11215347.145 -12581567.152 10 0 60813 11700.00000 0 20280186.086 12049211.103 -9758180.676 10 0 60813 12600.00000 0 21172204.399 12569560.211 -6745679.193 10 0 60813 13500.00000 0 21793892.806 12800611.996 -3602461.599 10 0 60813 14400.00000 0 22100172.676 12777394.162 -389442.953 10 0 60813 15300.00000 0 22055915.695 12544036.338 2831119.664 10 0 60813 16200.00000 0 21637532.289 12151690.703 5996826.566 10 0 60813 17100.00000 0 20834095.355 11656169.355 9046337.345 10 0 60813 18000.00000 0 19647951.875 11115397.937 11920552.385 10 0 60813 18900.00000 0 18094796.185 10586792.627 14563751.632 10 0 60813 19800.00000 0 16203200.911 10124670.689 16924669.074 10 0 60813 20700.00000 0 14013623.990 9777803.414 18957482.619 10 0 60813 21600.00000 0 11576931.823 9587214.268 20622700.660 10 0 60813 22500.00000 0 8952498.545 9584315.006 21887928.569 10 0 60813 23400.00000 0 6205958.940 9789458.446 22728500.462 10 0 60813 24300.00000 0 3406706.867 10210969.466 23127964.051 10 0 60813 25200.00000 0 625241.676 10844695.920 23078408.947 10 0 60813 26100.00000 0 -2069528.380 11674099.704 22580631.551 10 0 60813 27000.00000 0 -4612914.700 12670885.629 21644132.527 10 0 60813 27900.00000 0 -6946900.330 13796143.340 20286945.926 10 0 60813 28800.00000 0 -9022313.721 15001955.822 18535302.069 10 0 60813 29700.00000 0 -10800633.888 16233408.186 16423129.542 10 0 60813 30600.00000 0 -12255351.595 17430913.215 13991404.805 10 0 60813 31500.00000 0 -13372829.545 18532756.208 11287361.146 10 0 60813 32400.00000 0 -14152625.491 19477751.896 8363571.748 10 0 60813 33300.00000 0 -14607264.787 20207900.795 5276924.468 10 0 60813 34200.00000 0 -14761472.320 20670931.942 2087508.568 10 0 60813 35100.00000 0 -14650896.836 20822623.309 -1142564.278 10 0 60813 36000.00000 0 -14320382.549 20628800.432 -4350380.722 10 0 60813 36900.00000 0 -13821862.343 20066927.376 -7473463.112 10 0 60813 37800.00000 0 -13211963.237 19127221.554 -10450998.012 10 0 60813 38700.00000 0 -12549427.011 17813244.360 -13225030.606 10 0 60813 39600.00000 0 -11892456.733 16141942.044 -15741600.542 10 0 60813 40500.00000 0 -11296102.781 14143134.811 -17951796.299 10 0 60813 41400.00000 0 -10809799.927 11858475.617 -19812707.142 10 0 60813 42300.00000 0 -10475160.137 9339922.543 -21288254.128 10 0 60813 43200.00000 0 -10324114.465 6647789.060 -22349884.445 10 0 60813 44100.00000 0 -10377482.111 3848453.895 -22977116.355 10 0 60813 45000.00000 0 -10644026.368 1011826.201 -23157925.152 10 0 60813 45900.00000 0 -11120036.362 -1791328.567 -22888963.773 10 0 60813 46800.00000 0 -11789451.215 -4492091.317 -22175614.910 10 0 60813 47700.00000 0 -12624520.539 -7026009.003 -21031874.644 10 0 60813 48600.00000 0 -13586972.699 -9335523.742 -19480070.683 10 0 60813 49500.00000 0 -14629641.228 -11372111.934 -17550421.263 10 0 60813 50400.00000 0 -15698480.760 -13098046.235 -15280443.633 10 0 60813 51300.00000 0 -16734887.757 -14487708.989 -12714223.678 10 0 60813 52200.00000 0 -17678228.720 -15528404.365 -9901560.775 10 0 60813 53100.00000 0 -18468469.975 -16220637.210 -6897004.225 10 0 60813 54000.00000 0 -19048798.958 -16577848.717 -3758799.629 10 0 60813 54900.00000 0 -19368127.257 -16625621.448 -547765.209 10 0 60813 55800.00000 0 -19383370.566 -16400388.230 2673880.499 10 0 60813 56700.00000 0 -19061409.949 -15947699.955 5843717.325 10 0 60813 57600.00000 0 -18380652.016 -15320125.537 8900325.736 10 0 60813 58500.00000 0 -17332122.210 -14574872.516 11784469.840 10 0 60813 59400.00000 0 -15920044.766 -13771228.292 14440238.710 10 0 60813 60300.00000 0 -14161884.078 -12967929.324 16816124.452 10 0 60813 61200.00000 0 -12087844.524 -12220568.635 18866016.619 10 0 60813 62100.00000 0 -9739848.113 -11579150.233 20550094.196 10 0 60813 63000.00000 0 -7170030.858 -11085893.037 21835598.316 10 0 60813 63900.00000 0 -4438818.700 -10773376.542 22697470.918 10 0 60813 64800.00000 0 -1612661.193 -10663106.354 23118847.070 10 0 60813 65700.00000 0 1238484.621 -10764560.358 23091391.180 10 0 60813 66600.00000 0 4043817.121 -11074756.448 22615470.079 10 0 60813 67500.00000 0 6734390.444 -11578361.042 21700158.861 10 0 60813 68400.00000 0 9245740.990 -12248335.077 20363078.323 10 0 60813 69300.00000 0 11520331.401 -13047091.613 18630066.015 10 0 60813 70200.00000 0 13509710.497 -13928117.511 16534686.033 10 0 60813 71100.00000 0 15176299.095 -14837991.842 14117585.929 10 0 60813 72000.00000 0 16494726.882 -15718716.467 11425712.276 10 0 60813 72900.00000 0 17452664.155 -16510260.587 8511399.543 10 0 60813 73800.00000 0 18051113.436 -17153211.386 5431349.716 10 0 60813 74700.00000 0 18304148.738 -17591417.918 2245522.812 10 0 60813 75600.00000 0 18238113.859 -17774515.196 -984039.488 10 0 60813 76500.00000 0 17890314.233 -17660220.277 -4194433.177 10 0 60813 77400.00000 0 17307258.617 -17216301.642 -7323129.154 10 0 60813 78300.00000 0 16542526.255 -16422137.148 -10309202.862 10 0 60813 79200.00000 0 15654351.180 -15269793.422 -13094531.053 10 0 60813 80100.00000 0 14703027.320 -13764580.162 -15624931.148 10 0 60813 81000.00000 0 13748245.496 -11925055.333 -17851220.180 10 0 60813 81900.00000 0 12846475.889 -9782480.722 -19730172.276 10 0 60813 82800.00000 0 12048507.232 -7379750.644 -21225356.007 10 0 60813 83700.00000 0 11397246.760 -4769838.825 -22307835.717 10 0 60813 84600.00000 0 10925873.372 -2013828.536 -22956724.009 10 0 60813 85500.00000 0 10656421.131 821391.672 -23159575.592 10 0 60814 0.00000 0 10598851.668 3665670.456 -22912616.073 10 0 60814 900.00000 0 10750653.277 6448270.493 -22220802.143 10 0 60814 1800.00000 0 11096982.298 9100565.169 -21097713.487 10 0 60814 2700.00000 0 11611339.505 11558649.131 -19565278.895 10 0 60814 3600.00000 0 12256752.183 13765751.780 -17653342.753 10 0 60814 4500.00000 0 12987411.326 15674356.378 -15399080.595 10 0 60814 5400.00000 0 13750694.698 17247938.108 -12846275.219 10 0 60814 6300.00000 0 14489490.442 18462250.506 -10044467.274 10 0 60814 7200.00000 0 15144723.561 19306108.372 -7047996.612 10 0 60814 8100.00000 0 15657979.174 19781636.140 -3914952.640 10 0 60814 9000.00000 0 15974112.451 19903972.809 -706053.645 10 0 60814 9900.00000 0 16043735.701 19700446.974 2516523.600 10 0 60814 10800.00000 0 15825478.159 19209257.458 5690341.675 10 0 60814 11700.00000 0 15287923.460 18477715.461 8753905.077 10 0 60814 12600.00000 0 14411143.130 17560122.297 11647844.631 10 0 60814 13500.00000 0 13187761.150 16515371.796 14316061.316 10 0 60814 14400.00000 0 11623504.067 15404377.813 16706807.877 10 0 60814 15300.00000 0 9737212.370 14287434.471 18773687.753 10 0 60814 16200.00000 0 7560311.119 13221619.479 20476552.471 10 0 60814 17100.00000 0 5135760.114 12258349.063 21782280.552 10 0 60814 18000.00000 0 2516525.402 11441186.764 22665423.036 10 0 60814 18900.00000 0 -236366.252 10803997.901 23108703.232 10 0 60814 19800.00000 0 -3056111.029 10369527.189 23103360.784 10 0 60814 20700.00000 0 -5872656.697 10148459.599 22649332.910 10 0 60814 21600.00000 0 -8615372.701 10139004.491 21755268.540 10 0 60814 22500.00000 0 -11215751.928 10327021.302 20438374.076 10 0 60814 23400.00000 0 -13610032.502 10686682.477 18724092.590 10 0 60814 24300.00000 0 -15741630.884 11181646.638 16645621.476 10 0 60814 25200.00000 0 -17563284.848 11766693.413 14243276.717 10 0 60814 26100.00000 0 -19038816.592 12389751.450 11563715.187 10 0 60814 27000.00000 0 -20144441.837 12994234.166 8659029.431 10 0 60814 27900.00000 0 -20869569.678 13521584.223 5585732.260 10 0 60814 28800.00000 0 -21217059.331 13913918.341 2403651.149 10 0 60814 29700.00000 0 -21202923.002 14116659.375 -825245.444 10 0 60814 30600.00000 0 -20855487.758 14081042.776 -4038065.951 10 0 60814 31500.00000 0 -20214052.488 13766389.685 -7172232.758 10 0 60814 32400.00000 0 -19327097.706 13142048.876 -10166712.926 10 0 60814 33300.00000 0 -18250125.130 12188923.866 -12963217.277 10 0 60814 34200.00000 0 -17043219.742 10900519.517 -15507343.222 10 0 60814 35100.00000 0 -15768438.625 9283462.965 -17749638.243 10 0 60814 36000.00000 0 -14487137.981 7357476.403 -19646562.861 10 0 60814 36900.00000 0 -13257351.874 5154802.521 -21161334.293 10 0 60814 37800.00000 0 -12131333.489 2719106.636 -22264634.793 10 0 60814 38700.00000 0 -11153362.257 103901.482 -22935171.655 10 0 60814 39600.00000 0 -10357908.454 -2629439.458 -23160078.985 10 0 60814 40500.00000 0 -9768231.306 -5413997.299 -22935154.583 10 0 60814 41400.00000 0 -9395468.095 -8179855.618 -22264928.486 10 0 60814 42300.00000 0 -9238250.943 -10856775.306 -21162562.894 10 0 60814 43200.00000 0 -9282865.730 -13376885.998 -19649586.275 10 0 60814 44100.00000 0 -9503944.977 -15677283.280 -17755467.457 10 0 60814 45000.00000 0 -9865664.314 -17702424.951 -15517038.317 10 0 60814 45900.00000 0 -10323391.211 -19406228.134 -12977776.420 10 0 60814 46800.00000 0 -10825716.019 -20753781.512 -10186961.416 10 0 60814 47700.00000 0 -11316779.466 -21722602.846 -7198721.364 10 0 60814 48600.00000 0 -11738798.547 -22303390.845 -4070987.115 10 0 60814 49500.00000 0 -12034684.517 -22500241.315 -864374.654 10 0 60814 50400.00000 0 -12150642.902 -22330319.680 2358983.356 10 0 60814 51300.00000 0 -12038646.170 -21823004.469 5536634.587 10 0 60814 52200.00000 0 -11658675.040 -21018538.246 8607009.902 10 0 60814 53100.00000 0 -10980633.945 -19966242.839 11510609.171 10 0 60814 54000.00000 0 -9985859.713 -18722373.680 14191147.567 10 0 60814 54900.00000 0 -8668159.358 -17347703.004 16596640.676 10 0 60814 55800.00000 0 -7034332.346 -15904932.795 18680407.893 10 0 60814 56700.00000 0 -5104153.995 -14456045.327 20401975.158 10 0 60814 57600.00000 0 -2909818.931 -13059701.715 21727859.991 10 0 60814 58500.00000 0 -494865.810 -11768796.873 22632223.850 10 0 60814 59400.00000 0 2087374.012 -10628272.846 23097379.274 10 0 60814 60300.00000 0 4775741.446 -9673281.815 23114141.789 10 0 60814 61200.00000 0 7503548.546 -8927775.738 22682019.302 10 0 60814 62100.00000 0 10201117.478 -8403581.909 21809234.538 10 0 60814 63000.00000 0 12798455.435 -8100003.673 20512579.126 10 0 60814 63900.00000 0 15227955.213 -8003963.607 18817100.956 10 0 60814 64800.00000 0 17427009.502 -8090683.801 16755629.661 10 0 60814 65700.00000 0 19340430.043 -8324875.166 14368148.247 10 0 60814 66600.00000 0 20922570.357 -8662386.015 11701022.097 10 0 60814 67500.00000 0 22139062.749 -9052240.451 8806099.663 10 0 60814 68400.00000 0 22968096.228 -9438980.111 5739702.036 10 0 60814 69300.00000 0 23401181.122 -9765209.528 2561521.260 10 0 60814 70200.00000 0 23443367.907 -9974236.252 -666550.560 10 0 60814 71100.00000 0 23112911.016 -10012692.485 -3881637.581 10 0 60814 72000.00000 0 22440392.106 -9833025.557 -7021116.983 10 0 60814 72900.00000 0 21467340.508 -9395750.063 -10023850.670 10 0 60814 73800.00000 0 20244410.100 -8671364.705 -12831386.564 10 0 60814 74700.00000 0 18829190.779 -7641851.363 -15389104.842 10 0 60814 75600.00000 0 17283748.149 -6301691.931 -17647285.915 10 0 60814 76500.00000 0 15671996.337 -4658359.224 -19562078.865 10 0 60814 77400.00000 0 14057015.500 -2732260.782 -21096351.409 10 0 60814 78300.00000 0 12498427.417 -556137.679 -22220405.227 10 0 60814 79200.00000 0 11049939.478 1826056.543 -22912543.492 10 0 60814 80100.00000 0 9757159.709 4360749.915 -23159480.533 10 0 60814 81000.00000 0 8655773.504 6986752.524 -22956586.851 10 0 60814 81900.00000 0 7770157.060 9637580.209 -22307965.869 10 0 60814 82800.00000 0 7112483.962 12244005.015 -21226362.002 10 0 60814 83700.00000 0 6682360.448 14736726.865 -19732902.714 10 0 60814 84600.00000 0 6467002.794 17049056.161 -17856680.197 10 0 60814 85500.00000 0 6441947.638 19119496.710 -15634181.205 10 0 60815 0.00000 0 6572263.913 20894122.565 -13108576.452 10 0 60815 900.00000 0 6814214.396 22328652.026 -10328881.902 10 0 60815 1800.00000 0 7117295.964 23390131.361 -7349011.440 10 0 60815 2700.00000 0 7426572.447 24058162.482 -4226734.461 10 0 60815 3600.00000 0 7685201.473 24325622.049 -1022561.499 10 0 60815 4500.00000 0 7837048.848 24198843.951 2201422.192 10 0 60815 5400.00000 0 7829280.406 23697258.147 5382752.734 10 0 60815 6300.00000 0 7614822.165 22852501.507 8459790.667 10 0 60815 7200.00000 0 7154585.136 21707038.134 11372908.079 10 0 60815 8100.00000 0 6419360.864 20312346.918 14065637.313 10 0 60815 9000.00000 0 5391307.464 18726751.918 16485759.531 10 0 60815 9900.00000 0 4064962.822 17012985.934 18586312.542 10 0 60815 10800.00000 0 2447741.193 15235588.531 20326498.862 10 0 60815 11700.00000 0 559890.776 13458246.657 21672476.864 10 0 60815 12600.00000 0 -1566087.913 11741188.279 22598019.935 10 0 60815 13500.00000 0 -3886540.708 10138737.338 23085030.969 10 0 60815 14400.00000 0 -6348231.966 8697131.682 23123902.071 10 0 60815 15300.00000 0 -8890326.893 7452694.869 22713712.037 10 0 60815 16200.00000 0 -11446703.506 6430438.208 21862257.065 10 0 60815 17100.00000 0 -13948499.646 5643151.600 20585913.108 10 0 60815 18000.00000 0 -16326790.226 5091021.593 18909331.378 10 0 60815 18900.00000 0 -18515283.881 4761792.976 16864971.697 10 0 60815 19800.00000 0 -20452926.833 4631467.492 14492481.524 10 0 60815 20700.00000 0 -22086304.963 4665510.466 11837931.758 10 0 60815 21600.00000 0 -23371743.085 4820514.499 8952923.455 10 0 60815 22500.00000 0 -24277012.694 5046249.650 5893582.487 10 0 60815 23400.00000 0 -24782575.657 5288012.752 2719461.909 10 0 60815 24300.00000 0 -24882310.917 5489175.386 -507626.066 10 0 60815 25200.00000 0 -24583693.117 5593821.204 -3724824.757 10 0 60815 26100.00000 0 -23907415.553 5549359.251 -6869469.417 10 0 60815 27000.00000 0 -22886473.618 5309000.792 -9880319.868 10 0 60815 27900.00000 0 -21564748.086 4833993.088 -12698763.964 10 0 60815 28800.00000 0 -19995148.915 4095513.973 -15269967.188 10 0 60815 29700.00000 0 -18237398.959 3076145.905 -17543945.056 10 0 60815 30600.00000 0 -16355552.034 1770866.247 -19476536.976 10 0 60815 31500.00000 0 -14415350.717 187511.414 -21030262.450 10 0 60815 32400.00000 0 -12481535.569 -1653304.991 -22175043.368 10 0 60815 33300.00000 0 -10615218.861 -3718816.803 -22888779.042 10 0 60815 34200.00000 0 -8871432.631 -5965246.469 -23157763.795 10 0 60815 35100.00000 0 -7296952.887 -8339415.094 -22976940.128 10 0 60815 36000.00000 0 -5928489.717 -10780754.165 -22349983.737 10 0 60815 36900.00000 0 -4791317.296 -13223635.242 -21289219.773 10 0 60815 37800.00000 0 -3898399.137 -15599920.934 -19815372.894 10 0 60815 38700.00000 0 -3250043.093 -17841631.556 -17957156.617 10 0 60815 39600.00000 0 -2834098.507 -19883617.145 -15750710.324 10 0 60815 40500.00000 0 -2626685.359 -21666124.556 -13238895.037 10 0 60815 41400.00000 0 -2593423.188 -23137153.729 -10470461.503 10 0 60815 42300.00000 0 -2691106.927 -24254505.935 -7499106.564 10 0 60815 43200.00000 0 -2869758.238 -24987439.658 -4382435.751 10 0 60815 44100.00000 0 -3074965.465 -25317865.923 -1180851.812 10 0 60815 45000.00000 0 -3250413.345 -25241033.927 2043609.671 10 0 60815 45900.00000 0 -3340495.818 -24765678.968 5228475.442 10 0 60815 46800.00000 0 -3292901.788 -23913626.870 8312037.827 10 0 60815 47700.00000 0 -3061064.913 -22718871.592 11234543.172 10 0 60815 48600.00000 0 -2606374.102 -21226164.539 13939342.956 10 0 60815 49500.00000 0 -1900051.338 -19489174.172 16373985.784 10 0 60815 50400.00000 0 -924617.248 -17568292.339 18491229.616 10 0 60815 51300.00000 0 325118.127 -15528178.212 20249955.110 10 0 60815 52200.00000 0 1841582.291 -13435141.559 21615962.848 10 0 60815 53100.00000 0 3604506.498 -11354473.676 22562639.256 10 0 60815 54000.00000 0 5581530.434 -9347836.487 23071478.433 10 0 60815 54900.00000 0 7729322.346 -7470817.980 23132449.635 10 0 60815 55800.00000 0 9995170.041 -5770755.390 22744202.853 10 0 60815 56700.00000 0 12318978.573 -4284916.619 21914107.782 10 0 60815 57600.00000 0 14635593.173 -3039115.651 20658124.455 10 0 60815 58500.00000 0 16877352.037 -2046819.915 19000506.897 10 0 60815 59400.00000 0 18976763.430 -1308787.069 16973344.312 10 0 60815 60300.00000 0 20869195.825 -813246.622 14615947.510 10 0 60815 61200.00000 0 22495468.493 -536618.848 11974091.468 10 0 60815 62100.00000 0 23804233.621 -444740.675 9099128.051 10 0 60815 63000.00000 0 24754049.242 -494546.493 6046985.767 10 0 60815 63900.00000 0 25315054.937 -636132.252 2877076.179 10 0 60815 64800.00000 0 25470178.855 -815114.529 -348871.184 10 0 60815 65700.00000 0 25215824.422 -975183.359 -3568021.810 10 0 60815 66600.00000 0 24562007.255 -1060739.106 -6717672.137 10 0 60815 67500.00000 0 23531936.390 -1019499.903 -9736483.008 10 0 60815 68400.00000 0 22161057.676 -804967.437 -12565685.199 10 0 60815 69300.00000 0 20495600.309 -378645.083 -15150232.280 10 0 60815 70200.00000 0 18590688.528 288086.889 -17439877.412 10 0 60815 71100.00000 0 16508098.928 1212519.312 -19390152.592 10 0 60815 72000.00000 0 14313758.570 2399647.353 -20963231.113 10 0 60815 72900.00000 0 12075089.590 3841730.098 -22128656.809 10 0 60815 73800.00000 0 9858311.954 5518395.197 -22863926.613 10 0 60815 74700.00000 0 7725817.177 7397284.139 -23154916.032 10 0 60815 75600.00000 0 5733722.186 9435211.023 -22996140.463 10 0 60815 76500.00000 0 3929704.388 11579786.311 -22390848.412 10 0 60815 77400.00000 0 2351206.792 13771437.721 -21350945.929 10 0 60815 78300.00000 0 1024086.169 15945744.103 -19896754.628 10 0 60815 79200.00000 0 -38241.428 18035985.345 -18056608.671 10 0 60815 80100.00000 0 -835124.299 19975802.505 -15866298.964 10 0 60815 81000.00000 0 -1378456.487 21701857.962 -13368375.519 10 0 60815 81900.00000 0 -1691928.060 23156385.477 -10611321.442 10 0 60815 82800.00000 0 -1809777.353 24289524.574 -7648614.379 10 0 60815 83700.00000 0 -1775098.881 25061342.672 -4537693.282 10 0 60815 84600.00000 0 -1637778.995 25443461.247 -1338850.116 10 0 60815 85500.00000 0 -1452146.738 25420218.697 1885932.409 99